TimeEST,TemperatureF,Dew PointF,Humidity,Sea Level PressureIn,VisibilityMPH,Wind Direction,Wind SpeedMPH,Gust SpeedMPH,PrecipitationIn,Events,Conditions,WindDirDegrees,DateUTC
12:15 AM,31.1,27.1,85,30.00,7.0,Calm,Calm,-,N/A,,Overcast,0,2012-12-29 05:15:00
12:35 AM,31.1,27.5,87,29.99,7.0,Calm,Calm,-,N/A,,Overcast,0,2012-12-29 05:35:00
12:55 AM,31.5,27.9,87,29.97,5.0,Calm,Calm,-,N/A,,Overcast,0,2012-12-29 05:55:00
1:15 AM,32.0,28.8,88,29.96,5.0,Calm,Calm,-,N/A,,Overcast,0,2012-12-29 06:15:00
1:35 AM,32.4,28.8,87,29.95,5.0,Calm,Calm,-,N/A,,Overcast,0,2012-12-29 06:35:00
1:55 AM,32.4,29.3,88,29.96,1.8,Calm,Calm,-,N/A,Snow,Light Snow,0,2012-12-29 06:55:00
2:15 AM,32.0,29.1,89,29.93,1.0,Calm,Calm,-,N/A,Snow,Snow,0,2012-12-29 07:15:00
2:35 AM,32.0,29.5,90,29.92,1.8,Calm,Calm,-,N/A,Snow,Light Snow,0,2012-12-29 07:35:00
2:55 AM,32.0,29.7,91,29.90,1.8,Calm,Calm,-,N/A,Snow,Light Snow,0,2012-12-29 07:55:00
3:15 AM,32.0,29.8,92,29.87,2.0,Calm,Calm,-,N/A,Snow,Light Snow,0,2012-12-29 08:15:00
3:35 AM,32.0,29.8,92,29.87,3.0,Calm,Calm,-,N/A,,Overcast,0,2012-12-29 08:35:00
3:55 AM,31.6,29.5,92,29.84,2.5,Calm,Calm,-,N/A,,Overcast,0,2012-12-29 08:55:00
4:15 AM,31.8,29.7,92,29.82,3.0,Calm,Calm,-,N/A,,Overcast,0,2012-12-29 09:15:00
4:35 AM,31.8,29.7,92,29.80,4.0,Calm,Calm,-,N/A,,Overcast,0,2012-12-29 09:35:00
4:55 AM,31.6,29.3,91,29.80,4.0,Calm,Calm,-,N/A,,Overcast,0,2012-12-29 09:55:00
5:15 AM,31.5,29.3,92,29.77,3.0,Calm,Calm,-,N/A,,Overcast,0,2012-12-29 10:15:00
5:35 AM,32.0,29.8,92,29.76,2.5,Calm,Calm,-,N/A,,Overcast,0,2012-12-29 10:35:00
5:55 AM,32.0,30.0,92,29.77,3.0,Calm,Calm,-,N/A,,Overcast,0,2012-12-29 10:55:00
6:15 AM,32.4,30.6,93,29.76,4.0,Calm,Calm,-,N/A,,Overcast,0,2012-12-29 11:15:00
6:35 AM,32.0,30.2,93,29.77,4.0,Calm,Calm,-,N/A,Snow,Light Snow,0,2012-12-29 11:35:00
7:15 AM,32.0,29.3,90,29.74,1.5,Calm,Calm,-,N/A,Snow,Light Snow,0,2012-12-29 12:15:00
7:35 AM,31.8,29.3,90,29.74,1.5,Calm,Calm,-,N/A,Snow,Light Snow,0,2012-12-29 12:35:00
7:55 AM,31.8,29.5,91,29.74,1.8,Calm,Calm,-,N/A,Snow,Light Snow,0,2012-12-29 12:55:00
8:15 AM,31.8,29.7,92,29.72,0.8,Calm,Calm,-,N/A,Snow,Light Snow,0,2012-12-29 13:15:00
8:35 AM,31.6,29.7,92,29.71,2.0,Calm,Calm,-,N/A,,Overcast,0,2012-12-29 13:35:00
8:55 AM,31.5,29.3,92,29.70,2.0,Calm,Calm,-,N/A,,Overcast,0,2012-12-29 13:55:00
9:15 AM,32.0,30.2,93,29.69,1.5,Calm,Calm,-,N/A,Snow,Light Snow,0,2012-12-29 14:15:00
9:35 AM,32.2,30.6,94,29.68,2.5,Calm,Calm,-,N/A,,Overcast,0,2012-12-29 14:35:00
9:55 AM,32.9,30.9,92,29.67,3.0,Calm,Calm,-,N/A,,Overcast,0,2012-12-29 14:55:00
10:15 AM,33.4,31.1,91,29.67,4.0,Calm,Calm,-,N/A,,Overcast,0,2012-12-29 15:15:00
10:35 AM,33.8,31.1,90,29.66,4.0,Calm,Calm,-,N/A,,Overcast,0,2012-12-29 15:35:00
10:55 AM,33.8,31.1,90,29.66,3.0,Calm,Calm,-,N/A,,Overcast,0,2012-12-29 15:55:00
11:15 AM,34.3,31.8,90,29.65,3.0,Calm,Calm,-,N/A,,Overcast,0,2012-12-29 16:15:00
11:35 AM,35.1,32.0,89,29.64,4.0,Calm,Calm,-,N/A,,Overcast,0,2012-12-29 16:35:00
11:55 AM,36.0,32.4,87,29.63,4.0,Calm,Calm,-,0.02,,Overcast,0,2012-12-29 16:55:00
12:15 PM,36.1,32.2,86,29.62,4.0,Calm,Calm,-,0.02,,Overcast,0,2012-12-29 17:15:00
12:35 PM,37.0,32.4,83,29.61,5.0,Calm,Calm,-,0.03,,Haze,0,2012-12-29 17:35:00
1:15 PM,41.9,33.8,73,29.59,7.0,Calm,Calm,-,N/A,,Overcast,0,2012-12-29 18:15:00
1:35 PM,43.7,31.8,63,29.60,10.0,NW,3.5,-,0.01,,Overcast,320,2012-12-29 18:35:00
1:55 PM,43.7,32.0,63,29.60,10.0,ENE,5.8,-,0.05,,Overcast,60,2012-12-29 18:55:00
2:15 PM,45.0,30.4,57,29.61,10.0,West,9.2,-,0.02,,Overcast,270,2012-12-29 19:15:00
2:35 PM,44.1,28.9,55,29.62,10.0,West,17.3,23.0,0.06,,Mostly Cloudy,280,2012-12-29 19:35:00
2:55 PM,42.8,28.9,58,29.62,10.0,West,6.9,-,0.08,,Scattered Clouds,270,2012-12-29 19:55:00
3:15 PM,42.8,28.4,57,29.63,10.0,West,13.8,26.5,0.03,,Scattered Clouds,270,2012-12-29 20:15:00
3:35 PM,41.9,27.5,57,29.65,10.0,WNW,12.7,32.2,0.05,,Mostly Cloudy,300,2012-12-29 20:35:00
3:55 PM,40.5,28.0,61,29.66,10.0,WNW,9.2,19.6,0.06,,Overcast,290,2012-12-29 20:55:00
4:15 PM,39.7,27.7,62,29.68,10.0,West,6.9,18.4,0.01,,Overcast,280,2012-12-29 21:15:00
4:35 PM,39.2,26.6,61,29.69,10.0,WNW,15.0,32.2,0.03,,Overcast,300,2012-12-29 21:35:00
4:55 PM,39.2,27.0,62,29.70,10.0,Calm,Calm,-,0.03,,Overcast,0,2012-12-29 21:55:00
5:15 PM,39.0,27.3,63,29.71,10.0,Calm,Calm,-,0.01,,Overcast,0,2012-12-29 22:15:00
5:35 PM,38.7,27.5,64,29.71,10.0,WNW,5.8,27.6,0.01,,Overcast,290,2012-12-29 22:35:00
5:55 PM,38.5,27.5,65,29.73,10.0,NW,16.1,23.0,0.01,,Overcast,310,2012-12-29 22:55:00
6:15 PM,38.3,27.5,65,29.74,10.0,NW,15.0,24.2,N/A,,Overcast,310,2012-12-29 23:15:00
6:35 PM,38.3,27.5,65,29.77,10.0,NW,11.5,23.0,0.01,,Overcast,310,2012-12-29 23:35:00
6:55 PM,38.5,27.5,65,29.78,10.0,Calm,Calm,-,0.01,,Overcast,0,2012-12-29 23:55:00
7:15 PM,38.1,27.3,65,29.79,10.0,NW,4.6,17.3,N/A,,Overcast,320,2012-12-30 00:15:00
7:35 PM,37.4,27.3,67,29.80,10.0,Calm,Calm,-,N/A,,Overcast,0,2012-12-30 00:35:00
7:55 PM,37.4,26.6,65,29.81,10.0,Calm,Calm,-,N/A,,Overcast,0,2012-12-30 00:55:00
8:15 PM,36.9,26.2,65,29.81,10.0,Calm,Calm,-,N/A,,Overcast,0,2012-12-30 01:15:00
8:35 PM,36.7,25.9,65,29.82,10.0,Calm,Calm,-,N/A,,Overcast,0,2012-12-30 01:35:00
8:55 PM,36.5,25.3,64,29.83,10.0,Calm,Calm,-,N/A,,Overcast,0,2012-12-30 01:55:00
9:15 PM,36.3,25.2,64,29.83,10.0,WNW,4.6,-,N/A,,Overcast,300,2012-12-30 02:15:00
9:35 PM,36.1,25.3,65,29.85,10.0,NW,4.6,-,N/A,,Overcast,310,2012-12-30 02:35:00
9:55 PM,36.0,25.2,65,29.85,10.0,Calm,Calm,-,N/A,,Overcast,0,2012-12-30 02:55:00
10:15 PM,36.3,25.2,64,29.87,10.0,NNW,17.3,21.9,N/A,Snow,Light Snow,330,2012-12-30 03:15:00
10:35 PM,36.1,26.1,67,29.87,10.0,WNW,6.9,-,N/A,Snow,Light Snow,300,2012-12-30 03:35:00
10:55 PM,36.5,27.0,68,29.88,10.0,Calm,Calm,-,N/A,Snow,Light Snow,0,2012-12-30 03:55:00
11:15 PM,36.1,27.9,72,29.90,10.0,Calm,Calm,-,N/A,Snow,Light Snow,0,2012-12-30 04:15:00
11:35 PM,36.1,26.8,69,29.90,10.0,NW,4.6,-,N/A,Snow,Light Snow,310,2012-12-30 04:35:00
11:55 PM,35.8,27.0,70,29.91,7.0,Calm,Calm,-,N/A,Snow,Light Snow,0,2012-12-30 04:55:00